Home   Weather   USA   Wainwright   Past weeks
Flag for USA

Past Weather in Wainwright, Alaska, USA — Yesterday and Last 2 Weeks

Currently: 43 °F. Mostly cloudy. (Weather station: Post Rogers Memorial Airport, USA). See more current weather

Past Weather in Wainwright — Graph

°F

Wainwright Temperature Yesterday

Maximum temperature yesterday: 45 °F (at 12:53 pm)
Minimum temperature yesterday: 36 °F (at 9:26 pm)
Average temperature yesterday: 40 °F

High & Low Weather Summary for the Past Weeks

 TemperatureHumidityPressure
High58 °F (Jun 18, 11:53 am)97% (Jun 13, 7:53 am)30.16 "Hg (Jun 13, 7:53 am)
Low27 °F (Jun 10, 3:36 am)55% (Jun 18, 6:53 pm)29.45 "Hg (Jun 24, 1:53 pm)
Average38 °F83%29.93 "Hg
* Reported Jun 9 1:21 pm — Jun 24 1:53 pm, Wainwright. Weather by CustomWeather, © 2021

Note: Actual official high and low records may vary slightly from our data, if they occured in-between our weather recording intervals... More about our weather records

Wainwright Weather History for the Previous 24 Hours

Scroll right to see more
 ConditionsComfort  
Time TempWeatherWind HumidityBarometerVisibility
1:53 pm
Thu, Jun 24
44 °FOvercast.13 mph79%29.45 "Hg10 mi
12:53 pm40 °FLow clouds.12 mph77%29.45 "Hg10 mi
12:20 pm39 °FMore clouds than sun.10 mph79%29.46 "Hg10 mi
10:53 am40 °FLow clouds.9 mph80%29.47 "Hg10 mi
10:14 am40 °FMore clouds than sun.13 mph80%29.46 "Hg10 mi
9:53 am39 °FLow clouds.12 mph79%29.47 "Hg10 mi
9:38 am38 °FLow clouds.10 mph83%29.47 "Hg10 mi
8:53 am38 °FMostly cloudy.9 mph83%29.46 "Hg10 mi
8:05 am38 °FMostly cloudy.10 mph83%29.46 "Hg10 mi
7:53 am38 °FMore clouds than sun.8 mph83%29.47 "Hg10 mi
7:20 am37 °FFog.8 mph89%29.47 "Hg3 mi
6:53 am37 °FFog.7 mph93%29.48 "Hg2 mi
6:27 am37 °FFog.10 mph93%29.48 "Hg1 mi
6:17 am37 °FFog.10 mph93%29.48 "Hg0 mi
6:09 am37 °FFog.10 mph93%29.48 "Hg1 mi
5:53 am37 °FFog.13 mph89%29.48 "Hg0 mi
5:31 am36 °FFog.10 mph92%29.49 "Hg0 mi
5:10 am36 °FFog.9 mph89%29.49 "Hg0 mi
4:53 am35 °FFog.9 mph92%29.50 "Hg0 mi
4:29 am35 °FFog.12 mph88%29.50 "Hg0 mi
4:09 am35 °FFog.9 mph88%29.51 "Hg0 mi
4:06 am35 °FFog.10 mph88%29.51 "Hg0 mi
3:58 am35 °FFog.9 mph92%29.51 "Hg1 mi
3:33 am35 °FFog.10 mph88%29.52 "Hg1 mi
3:01 am35 °FFog.12 mph88%29.52 "Hg1 mi
2:39 am35 °FFog.9 mph88%29.53 "Hg2 mi
1:53 am36 °FLow clouds.9 mph89%29.53 "Hg10 mi
1:35 am36 °FFog.10 mph89%29.53 "Hg1 mi
1:22 am36 °FFog.10 mph89%29.54 "Hg1 mi
1:12 am35 °FFog.12 mph92%29.54 "Hg2 mi
12:53 am36 °FFog.12 mph89%29.54 "Hg0 mi
12:36 am36 °FFog.13 mph89%29.55 "Hg1 mi
12:17 am36 °FFog.12 mph92%29.55 "Hg1 mi
11:53 pm
Wed, Jun 23
36 °FFog.10 mph92%29.56 "Hg0 mi
11:30 pm36 °FFog.10 mph89%29.56 "Hg2 mi
11:00 pm36 °FFog.12 mph85%29.57 "Hg3 mi
10:28 pm36 °FFog.10 mph85%29.57 "Hg1 mi
9:53 pm36 °FFog.12 mph85%29.57 "Hg1 mi
9:26 pm36 °FFog.12 mph85%29.58 "Hg1 mi
8:56 pm37 °FLow clouds.12 mph82%29.58 "Hg2 mi
7:53 pm41 °FPartly sunny.10 mph82%29.59 "Hg10 mi
7:15 pm41 °FLow clouds.12 mph80%29.59 "Hg10 mi
6:53 pm43 °FLow clouds.12 mph76%29.59 "Hg10 mi
5:53 pm42 °FLow clouds.12 mph82%29.60 "Hg4 mi
4:53 pm42 °FLow clouds.12 mph79%29.62 "Hg6 mi
3:53 pm42 °FLow clouds.10 mph73%29.64 "Hg10 mi
3:00 pm44 °FLow clouds.9 mph71%29.64 "Hg10 mi
Weather by CustomWeather, © 2021

See weather overview